TOM790 EGCC-HEGN

Flight info

Callsign TOM790
Flight time N/A
Altitude 35000
Route SANBA N859 HON UL612 OGULO DCT OKASI DCT OKEKO DCT MOU DCT MADIV DCT MOKIP DCT TUFTA DCT KOGAS DCT MEDAM DCT NITAM DCT MOGBO DCT CDC DCT BELIX UM728 EBOKA/N0442F370 UM728 SALUN N705 MMA P751 DASUM Y234 FYM M872 BOPOB BOPOB1A
Aircraft B738/M-SDE2E3FGHIRWXY/LB1

Departure

Time N/A
Airport Manchester Airport (EGCC)

Arrival

Time 2026-05-07 15:28
Airport Hurghada International Airport (HEGN)
Time Latitude Longitude Altitude Speed Heading
2026-05-07 14:02 33.52695 24.95624 35153 ft 523 kts 140°
2026-05-07 14:02 33.47248 25.01404 35160 ft 523 kts 140°
2026-05-07 14:03 33.41795 25.07180 35149 ft 524 kts 140°
2026-05-07 14:03 33.36328 25.12963 35155 ft 524 kts 140°
2026-05-07 14:04 33.30858 25.18737 35154 ft 524 kts 140°
2026-05-07 14:04 33.25413 25.24476 35154 ft 525 kts 140°
2026-05-07 14:05 33.19934 25.30240 35151 ft 525 kts 140°
2026-05-07 14:05 33.14440 25.36009 35155 ft 526 kts 140°
2026-05-07 14:06 33.08938 25.41778 35158 ft 527 kts 140°
2026-05-07 14:06 33.03424 25.47550 35156 ft 528 kts 140°
2026-05-07 14:07 32.97906 25.53313 35163 ft 535 kts 139°
2026-05-07 14:07 32.92260 25.59202 35161 ft 542 kts 139°
2026-05-07 14:08 32.86578 25.65118 35161 ft 543 kts 139°
2026-05-07 14:08 32.80878 25.71042 35153 ft 544 kts 139°
2026-05-07 14:09 32.75174 25.76960 35147 ft 544 kts 139°
2026-05-07 14:09 32.69472 25.82865 35140 ft 544 kts 139°
2026-05-07 14:10 32.63811 25.88717 35147 ft 542 kts 139°
2026-05-07 14:10 32.58119 25.94591 35148 ft 541 kts 139°
2026-05-07 14:11 32.52431 26.00451 35150 ft 541 kts 139°
2026-05-07 14:11 32.46752 26.06291 35150 ft 540 kts 139°
2026-05-07 14:12 32.41080 26.12114 35149 ft 539 kts 139°
2026-05-07 14:12 32.35408 26.17927 35146 ft 539 kts 139°
2026-05-07 14:13 32.29745 26.23721 35143 ft 538 kts 139°
2026-05-07 14:13 32.24107 26.29478 35145 ft 538 kts 139°
2026-05-07 14:14 32.18440 26.35257 35148 ft 539 kts 139°
2026-05-07 14:14 32.14152 26.39528 35669 ft 4 kts 145°
2026-05-07 14:14 32.13818 26.39811 30787 ft 197 kts 146°
2026-05-07 14:15 32.11848 26.41957 27220 ft 452 kts 135°
2026-05-07 14:15 32.09592 26.44440 28344 ft 434 kts 137°
2026-05-07 14:15 32.07329 26.46759 29162 ft 430 kts 139°
2026-05-07 14:15 32.05013 26.49066 29421 ft 441 kts 139°
2026-05-07 14:16 32.02627 26.51427 29541 ft 454 kts 139°
2026-05-07 14:16 32.00183 26.53856 29667 ft 466 kts 139°
2026-05-07 14:16 31.97678 26.56361 29787 ft 477 kts 139°
2026-05-07 14:16 31.95126 26.58927 29969 ft 487 kts 138°
2026-05-07 14:17 31.92559 26.61517 30162 ft 495 kts 138°
2026-05-07 14:17 31.89922 26.64181 30354 ft 503 kts 138°
2026-05-07 14:17 31.87254 26.66877 30595 ft 508 kts 138°
2026-05-07 14:17 31.84554 26.69601 30873 ft 512 kts 138°
2026-05-07 14:18 31.81844 26.72334 31166 ft 515 kts 138°
2026-05-07 14:18 31.79113 26.75085 31473 ft 518 kts 139°
2026-05-07 14:18 31.76362 26.77854 31758 ft 522 kts 139°
2026-05-07 14:18 31.73595 26.80636 32026 ft 525 kts 139°
2026-05-07 14:19 31.70813 26.83432 32293 ft 528 kts 139°
2026-05-07 14:19 31.68016 26.86239 32575 ft 531 kts 139°
2026-05-07 14:19 31.65196 26.89068 32840 ft 534 kts 139°
2026-05-07 14:19 31.62363 26.91907 33076 ft 537 kts 139°
2026-05-07 14:20 31.59509 26.94765 33358 ft 539 kts 139°
2026-05-07 14:20 31.56688 26.97588 33707 ft 540 kts 139°
2026-05-07 14:20 31.53836 27.00440 34068 ft 540 kts 139°
2026-05-07 14:20 31.50973 27.03300 34361 ft 541 kts 139°
2026-05-07 14:21 31.48109 27.06160 34670 ft 541 kts 139°
2026-05-07 14:21 31.45242 27.09020 35014 ft 540 kts 139°
2026-05-07 14:21 31.42384 27.11869 35169 ft 542 kts 139°
2026-05-07 14:22 31.36645 27.17582 35173 ft 538 kts 139°
2026-05-07 14:22 31.31186 27.23548 35152 ft 535 kts 127°
2026-05-07 14:23 31.26963 27.30648 35161 ft 532 kts 119°
2026-05-07 14:23 31.22904 27.37897 35162 ft 533 kts 120°
2026-05-07 14:24 31.18754 27.45103 35162 ft 535 kts 120°
2026-05-07 14:24 31.14595 27.52243 35166 ft 536 kts 120°
2026-05-07 14:25 31.10373 27.59435 35151 ft 537 kts 121°
2026-05-07 14:25 31.06095 27.66581 35155 ft 537 kts 121°
2026-05-07 14:26 31.01813 27.73711 35143 ft 536 kts 121°
2026-05-07 14:26 30.97547 27.80823 35143 ft 534 kts 121°
2026-05-07 14:27 30.94015 27.86713 35141 ft 533 kts 121°
2026-05-07 14:27 30.89074 27.94939 35139 ft 531 kts 121°
2026-05-07 14:28 30.85524 28.00839 35134 ft 530 kts 121°
2026-05-07 14:28 30.81289 28.07863 35151 ft 530 kts 121°
2026-05-07 14:29 30.77053 28.14879 35138 ft 530 kts 121°
2026-05-07 14:29 30.72832 28.21857 35125 ft 531 kts 121°
2026-05-07 14:30 30.68574 28.28882 35120 ft 532 kts 121°
2026-05-07 14:30 30.64300 28.35921 35107 ft 533 kts 121°
2026-05-07 14:31 30.60019 28.42958 35120 ft 533 kts 121°
2026-05-07 14:31 30.55742 28.49977 35106 ft 533 kts 121°
2026-05-07 14:32 30.51458 28.56996 35104 ft 532 kts 121°
2026-05-07 14:32 30.47168 28.64011 35101 ft 532 kts 121°
2026-05-07 14:33 30.42915 28.70954 35100 ft 531 kts 121°
2026-05-07 14:33 30.38637 28.77927 35091 ft 531 kts 121°
2026-05-07 14:34 30.34358 28.84889 35090 ft 530 kts 121°
2026-05-07 14:34 30.30083 28.91832 35090 ft 529 kts 121°
2026-05-07 14:35 30.25806 28.98769 35098 ft 529 kts 120°
2026-05-07 14:35 30.21531 29.05690 35067 ft 529 kts 120°
2026-05-07 14:36 30.17246 29.12612 35075 ft 528 kts 120°
2026-05-07 14:36 30.12985 29.19477 35073 ft 528 kts 120°
2026-05-07 14:37 30.08756 29.26397 35091 ft 526 kts 119°
2026-05-07 14:37 30.02499 29.36817 35070 ft 526 kts 119°
2026-05-07 14:38 29.98324 29.43741 35063 ft 525 kts 119°
2026-05-07 14:38 29.94145 29.50641 35071 ft 525 kts 119°
2026-05-07 14:39 29.89961 29.57532 35072 ft 524 kts 119°
2026-05-07 14:39 29.85777 29.64411 35059 ft 523 kts 119°
2026-05-07 14:40 29.81602 29.71268 35058 ft 522 kts 119°
2026-05-07 14:40 29.77458 29.78062 35056 ft 521 kts 119°
2026-05-07 14:41 29.73283 29.84896 35086 ft 521 kts 119°
2026-05-07 14:41 29.69109 29.91715 35059 ft 520 kts 119°
2026-05-07 14:42 29.64945 29.98507 35049 ft 518 kts 119°
2026-05-07 14:42 29.60798 30.05261 35054 ft 516 kts 119°
2026-05-07 14:43 29.56681 30.11955 35070 ft 515 kts 119°
2026-05-07 14:43 29.52545 30.18671 35058 ft 514 kts 119°
2026-05-07 14:44 29.48419 30.25359 35040 ft 512 kts 119°
2026-05-07 14:44 29.44306 30.32015 35044 ft 510 kts 119°
2026-05-07 14:45 29.40196 30.38644 35030 ft 511 kts 120°
2026-05-07 14:45 29.35464 30.44794 35054 ft 516 kts 129°
2026-05-07 14:46 29.30407 30.50642 35040 ft 517 kts 130°
2026-05-07 14:46 29.25368 30.56498 35045 ft 515 kts 129°
2026-05-07 14:47 29.20381 30.62392 35045 ft 515 kts 129°
2026-05-07 14:47 29.15443 30.68262 35054 ft 514 kts 129°
2026-05-07 14:48 29.10472 30.74162 35051 ft 515 kts 129°
2026-05-07 14:48 29.05493 30.80055 35052 ft 515 kts 129°
2026-05-07 14:49 29.00506 30.85945 35047 ft 515 kts 129°
2026-05-07 14:49 28.95513 30.91833 35055 ft 516 kts 129°
2026-05-07 14:50 28.90516 30.97719 35074 ft 516 kts 130°
2026-05-07 14:50 28.85552 31.03557 35050 ft 515 kts 130°
2026-05-07 14:51 28.80563 31.09416 35045 ft 513 kts 130°
2026-05-07 14:51 28.75596 31.15243 35052 ft 511 kts 130°
2026-05-07 14:52 28.70644 31.21043 35052 ft 509 kts 130°
2026-05-07 14:52 28.65807 31.26922 35072 ft 506 kts 129°
2026-05-07 14:53 28.61158 31.32856 35047 ft 503 kts 129°
2026-05-07 14:53 28.56511 31.38778 35047 ft 501 kts 129°
2026-05-07 14:54 28.51855 31.44651 35043 ft 498 kts 129°
2026-05-07 14:54 28.47208 31.50482 35049 ft 497 kts 129°
2026-05-07 14:55 28.42571 31.56292 35052 ft 496 kts 130°
2026-05-07 14:55 28.37948 31.62076 35039 ft 494 kts 130°
2026-05-07 14:56 28.33332 31.67847 35037 ft 493 kts 130°
2026-05-07 14:56 28.28721 31.73602 35032 ft 492 kts 130°
2026-05-07 14:57 28.24144 31.79308 35031 ft 492 kts 130°
2026-05-07 14:57 28.19531 31.85051 35040 ft 492 kts 131°
2026-05-07 14:58 28.14921 31.90783 35028 ft 492 kts 131°
2026-05-07 14:58 28.10356 31.96451 35005 ft 477 kts 131°
2026-05-07 14:59 28.08154 31.99181 34999 ft 461 kts 131°
2026-05-07 14:59 28.06028 32.01815 35001 ft 446 kts 131°
2026-05-07 14:59 28.02224 32.07178 34973 ft 430 kts 117°
2026-05-07 15:00 28.00811 32.10051 34727 ft 423 kts 116°
2026-05-07 15:00 27.99422 32.12991 34166 ft 427 kts 115°
2026-05-07 15:00 27.98015 32.16006 32896 ft 441 kts 116°
2026-05-07 15:00 27.96546 32.19141 31869 ft 455 kts 116°
2026-05-07 15:01 27.95063 32.22270 31299 ft 448 kts 117°
2026-05-07 15:01 27.93585 32.25361 30852 ft 445 kts 117°
2026-05-07 15:01 27.92114 32.28416 30514 ft 440 kts 117°
2026-05-07 15:01 27.90657 32.31433 30147 ft 435 kts 118°
2026-05-07 15:02 27.89209 32.34427 29694 ft 431 kts 118°
2026-05-07 15:02 27.87793 32.37350 29251 ft 427 kts 118°
2026-05-07 15:02 27.86371 32.40285 28770 ft 424 kts 118°
2026-05-07 15:02 27.84959 32.43197 28304 ft 420 kts 118°
2026-05-07 15:03 27.83559 32.46085 27795 ft 418 kts 118°
2026-05-07 15:03 27.82161 32.48965 27346 ft 416 kts 118°
2026-05-07 15:03 27.80778 32.51814 26946 ft 411 kts 118°
2026-05-07 15:03 27.79408 32.54634 26553 ft 407 kts 118°
2026-05-07 15:04 27.78049 32.57430 26166 ft 403 kts 118°
2026-05-07 15:04 27.76705 32.60191 25783 ft 400 kts 118°
2026-05-07 15:04 27.75373 32.62928 25427 ft 396 kts 118°
2026-05-07 15:04 27.74052 32.65640 25064 ft 392 kts 118°
2026-05-07 15:05 27.72743 32.68328 24679 ft 390 kts 118°
2026-05-07 15:05 27.71439 32.71001 24326 ft 387 kts 118°
2026-05-07 15:05 27.70146 32.73649 23971 ft 384 kts 118°
2026-05-07 15:05 27.68860 32.76282 23619 ft 382 kts 118°
2026-05-07 15:06 27.67586 32.78890 23211 ft 379 kts 118°
2026-05-07 15:06 27.66317 32.81485 22806 ft 376 kts 118°
2026-05-07 15:06 27.65059 32.84058 22423 ft 373 kts 118°
2026-05-07 15:06 27.63809 32.86611 22084 ft 369 kts 118°
2026-05-07 15:07 27.62572 32.89136 21736 ft 366 kts 119°
2026-05-07 15:07 27.61345 32.91639 21377 ft 363 kts 119°
2026-05-07 15:07 27.60128 32.94123 21035 ft 361 kts 119°
2026-05-07 15:07 27.58911 32.96602 20689 ft 362 kts 119°
2026-05-07 15:08 27.57691 32.99087 20347 ft 362 kts 119°
2026-05-07 15:08 27.56472 33.01568 20017 ft 361 kts 119°
2026-05-07 15:08 27.55254 33.04047 19656 ft 363 kts 120°
2026-05-07 15:08 27.54029 33.06536 19294 ft 362 kts 120°
2026-05-07 15:09 27.52828 33.08977 18961 ft 360 kts 119°
2026-05-07 15:09 27.51617 33.11436 18606 ft 358 kts 119°
2026-05-07 15:09 27.50415 33.13877 18265 ft 355 kts 120°
2026-05-07 15:09 27.49217 33.16307 17875 ft 354 kts 120°
2026-05-07 15:10 27.48023 33.18728 17500 ft 352 kts 120°
2026-05-07 15:10 27.46838 33.21129 17158 ft 349 kts 120°
2026-05-07 15:10 27.45664 33.23506 16827 ft 346 kts 120°
2026-05-07 15:10 27.44501 33.25861 16478 ft 343 kts 120°
2026-05-07 15:11 27.43346 33.28198 16158 ft 340 kts 120°
2026-05-07 15:11 27.42199 33.30520 15827 ft 338 kts 120°
2026-05-07 15:11 27.41060 33.32823 15500 ft 336 kts 120°
2026-05-07 15:11 27.39943 33.35078 15186 ft 333 kts 120°
2026-05-07 15:12 27.38816 33.37352 14852 ft 331 kts 120°
2026-05-07 15:12 27.37918 33.39722 14526 ft 331 kts 101°
2026-05-07 15:12 27.37605 33.42276 14336 ft 329 kts 96°
2026-05-07 15:12 27.37335 33.44825 14122 ft 325 kts 97°
2026-05-07 15:13 27.37058 33.47344 13830 ft 323 kts 97°
2026-05-07 15:13 27.36769 33.49847 13492 ft 322 kts 97°
2026-05-07 15:13 27.36573 33.51498 13271 ft 321 kts 97°
2026-05-07 15:13 27.36274 33.53977 12938 ft 319 kts 97°
2026-05-07 15:14 27.35972 33.56446 12617 ft 318 kts 99°
2026-05-07 15:14 27.35238 33.58783 12264 ft 321 kts 124°
2026-05-07 15:14 27.33679 33.60555 11961 ft 321 kts 148°
2026-05-07 15:14 27.31640 33.61551 11623 ft 321 kts 167°
2026-05-07 15:15 27.29467 33.62192 11274 ft 322 kts 168°
2026-05-07 15:15 27.27300 33.62794 10941 ft 319 kts 168°
2026-05-07 15:15 27.25155 33.63408 10612 ft 317 kts 168°
2026-05-07 15:15 27.23026 33.64022 10349 ft 313 kts 167°
2026-05-07 15:16 27.20986 33.64626 10229 ft 295 kts 167°
2026-05-07 15:16 27.19034 33.65208 10121 ft 286 kts 167°
2026-05-07 15:16 27.17112 33.65789 10002 ft 288 kts 169°
2026-05-07 15:16 27.15179 33.66355 9750 ft 292 kts 167°
2026-05-07 15:17 27.13213 33.66937 9450 ft 291 kts 168°
2026-05-07 15:17 27.11275 33.67500 9155 ft 282 kts 167°
2026-05-07 15:17 27.09406 33.68053 8875 ft 273 kts 167°
2026-05-07 15:17 27.07600 33.68592 8606 ft 265 kts 167°
2026-05-07 15:18 27.05826 33.69120 8351 ft 262 kts 167°
2026-05-07 15:18 27.04064 33.69642 8100 ft 261 kts 167°
2026-05-07 15:18 27.02309 33.70161 7844 ft 260 kts 168°
2026-05-07 15:18 27.00563 33.70677 7587 ft 259 kts 167°
2026-05-07 15:19 26.98824 33.71193 7339 ft 258 kts 168°
2026-05-07 15:19 26.97088 33.71707 7094 ft 257 kts 167°
2026-05-07 15:19 26.95359 33.72218 6840 ft 257 kts 168°
2026-05-07 15:19 26.93653 33.72721 6572 ft 256 kts 168°
2026-05-07 15:20 26.91927 33.73230 6320 ft 255 kts 168°
2026-05-07 15:20 26.90293 33.73987 6000 ft 260 kts 146°
2026-05-07 15:20 26.89145 33.75524 5655 ft 258 kts 114°
2026-05-07 15:20 26.88827 33.77461 5361 ft 253 kts 83°
2026-05-07 15:21 26.89391 33.79268 5052 ft 244 kts 53°
2026-05-07 15:21 26.90451 33.80698 4827 ft 235 kts 44°
2026-05-07 15:21 26.91518 33.82038 4603 ft 225 kts 45°
2026-05-07 15:21 26.92543 33.83308 4378 ft 215 kts 44°
2026-05-07 15:22 26.93589 33.84439 4163 ft 203 kts 26°
2026-05-07 15:22 26.94791 33.85181 3974 ft 194 kts 25°
2026-05-07 15:22 26.95971 33.85888 3782 ft 191 kts 23°
2026-05-07 15:22 26.97191 33.86166 3723 ft 177 kts 347°
2026-05-07 15:23 26.98374 33.85850 3536 ft 181 kts 345°
2026-05-07 15:23 26.99607 33.85518 3305 ft 181 kts 343°
2026-05-07 15:23 27.00809 33.85170 3077 ft 175 kts 342°
2026-05-07 15:23 27.01974 33.84824 2840 ft 171 kts 343°
2026-05-07 15:24 27.03111 33.84486 2620 ft 166 kts 343°
2026-05-07 15:24 27.04205 33.84160 2406 ft 159 kts 344°
2026-05-07 15:24 27.05248 33.83850 2205 ft 151 kts 343°
2026-05-07 15:24 27.06243 33.83554 2023 ft 146 kts 342°
2026-05-07 15:25 27.07220 33.83263 1823 ft 144 kts 342°
2026-05-07 15:25 27.08176 33.82977 1651 ft 142 kts 344°
2026-05-07 15:25 27.09149 33.82688 1490 ft 143 kts 345°
2026-05-07 15:25 27.10097 33.82405 1290 ft 138 kts 345°
2026-05-07 15:26 27.11010 33.82133 1091 ft 134 kts 346°
2026-05-07 15:26 27.11916 33.81864 941 ft 138 kts 347°
2026-05-07 15:26 27.12862 33.81583 745 ft 140 kts 348°
2026-05-07 15:26 27.13782 33.81320 572 ft 135 kts 346°
2026-05-07 15:27 27.14703 33.81052 373 ft 138 kts 342°
2026-05-07 15:27 27.15611 33.80756 219 ft 133 kts 347°
2026-05-07 15:27 27.16485 33.80500 57 ft 130 kts 348°
2026-05-07 15:27 27.17273 33.80274 47 ft 91 kts 345°
2026-05-07 15:28 27.17668 33.80161 50 ft 31 kts 346°
2026-05-07 15:28 27.17865 33.80099 56 ft 29 kts 343°
2026-05-07 15:28 27.18054 33.80040 50 ft 27 kts 345°
2026-05-07 15:28 27.18232 33.79988 50 ft 25 kts 346°
2026-05-07 15:29 27.18385 33.79943 47 ft 15 kts 345°
2026-05-07 15:29 27.18453 33.79972 49 ft 12 kts 70°
2026-05-07 15:29 27.18469 33.80061 48 ft 12 kts 100°
2026-05-07 15:29 27.18406 33.80110 47 ft 11 kts 161°
2026-05-07 15:30 27.18330 33.80135 49 ft 11 kts 166°
2026-05-07 15:30 27.18257 33.80155 51 ft 11 kts 166°
2026-05-07 15:30 27.18177 33.80177 51 ft 14 kts 166°
2026-05-07 15:30 27.18069 33.80207 50 ft 18 kts 166°
2026-05-07 15:31 27.17933 33.80247 53 ft 23 kts 165°
2026-05-07 15:31 27.17767 33.80298 49 ft 25 kts 165°
2026-05-07 15:31 27.17627 33.80339 53 ft 19 kts 165°
2026-05-07 15:31 27.17521 33.80371 51 ft 12 kts 165°
2026-05-07 15:32 27.17453 33.80419 52 ft 12 kts 111°
2026-05-07 15:32 27.17470 33.80510 56 ft 12 kts 76°
2026-05-07 15:32 27.17494 33.80598 54 ft 12 kts 56°
2026-05-07 15:32 27.17559 33.80611 54 ft 3 kts 349°
2026-05-07 15:33 27.17570 33.80594 56 ft 3 kts 288°
2026-05-07 15:33 27.17570 33.80572 57 ft 3 kts 256°
2026-05-07 15:33 27.17559 33.80552 53 ft 3 kts 242°
2026-05-07 15:33 27.17554 33.80534 52 ft 1 kts 253°
2026-05-07 15:34 27.17552 33.80526 54 ft 0 kts 254°
2026-05-07 15:34 27.17552 33.80525 54 ft 0 kts 254°